Theta_e
303 303 303 303 304 304 304 305 305 305 305 305 305 304 304 305 306 305 305 306 306 306 305 306 306 306 306 306 307 308 307 306 306 306 307 308 307 306 307 307 307 307 308 308 308 309 309 309 309 310 310 310 310 310 310 311 311 310 310 311 311 311
303 303 303 303 303 304 304 304 305 304 304 304 304 304 304 304 304 304 304 304 305 305 304 304 304 304 304 304 304 304 304 304 304 304 304 303 305 305 305 305 305 305 305 306 306 307 307 307 307 308 308 308 308 308 307 308 308 307 307 308 309 309
302 302 302 302 303 303 304 304 303 303 304 303 303 303 302 302 303 303 303 303 303 303 302 302 302 302 303 303 303 303 302 302 302 302 302 303 303 303 303 303 303 303 304 304 304 305 305 305 305 306 306 306 306 306 306 306 305 305 304 305 305 306
301 302 303 303 303 302 302 303 303 302 302 303 302 302 302 301 302 302 302 302 302 301 301 301 301 302 302 302 301 301 300 300 300 300 301 301 301 301 302 301 301 302 302 302 302 303 303 303 304 304 304 303 303 303 304 303 303 302 302 303 302 303
302 302 302 302 302 302 302 302 302 302 301 301 301 300 300 301 301 302 302 301 301 301 301 301 301 301 301 301 300 300 299 300 300 300 299 300 300 301 301 300 300 300 300 300 301 301 302 302 302 302 302 301 301 301 301 302 301 301 300 300 301 302
302 301 301 302 302 301 301 301 301 301 301 300 300 299 299 300 301 301 301 301 301 301 301 300 300 300 299 299 299 299 299 299 299 299 299 299 300 299 300 300 300 300 300 300 300 300 300 300 301 301 301 301 301 300 300 300 300 300 300 300 300 300
301 302 302 301 301 301 301 301 300 300 299 300 299 299 299 299 300 300 300 301 300 300 299 299 299 298 298 298 298 298 298 298 298 298 298 298 298 298 299 299 299 299 299 299 298 299 299 299 299 299 299 300 300 300 300 300 300 299 299 299 299 296
302 301 300 300 300 300 300 300 300 299 299 298 299 299 299 299 299 299 300 300 299 298 298 298 298 297 297 297 297 297 297 297 297 297 297 297 296 297 298 297 298 297 297 297 298 298 298 298 298 298 298 299 299 299 299 299 299 299 298 298 298 298
300 300 300 299 299 299 299 299 299 299 298 297 297 298 298 298 298 298 298 298 298 297 297 296 296 296 296 296 296 296 296 296 296 295 295 295 295 295 295 296 296 296 296 297 297 297 297 298 298 298 298 298 298 298 298 297 297 297 297 297 297 297
299 299 299 298 298 298 298 297 297 297 297 297 297 297 296 297 297 297 297 298 297 296 296 296 296 296 295 296 296 296 295 295 295 295 295 294 294 294 294 294 294 295 295 296 296 296 297 296 296 297 298 297 296 295 295 295 295 295 296 296 296 296
299 299 298 298 298 297 297 297 297 297 297 296 296 296 295 296 296 296 296 296 295 295 295 295 295 295 295 295 294 294 294 294 293 293 293 293 294 294 294 294 294 294 294 294 295 295 295 296 296 297 296 294 293 293 293 294 294 294 294 294 295 295
299 298 298 297 297 297 297 297 296 296 296 295 295 295 294 295 295 295 295 294 294 294 294 294 294 294 294 293 293 292 292 292 292 292 292 292 293 293 293 293 293 293 293 293 293 294 295 295 296 294 292 292 292 292 292 292 292 293 293 293 293 293
299 298 297 297 297 296 296 296 296 296 295 295 295 294 294 294 294 294 293 293 293 293 293 293 292 292 292 292 292 291 291 291 291 291 291 291 291 291 292 292 292 292 292 292 292 292 294 295 295 292 293 293 293 292 291 291 291 291 292 292 292 292
297 296 296 296 295 295 295 295 295 295 294 294 293 293 293 294 294 293 293 292 292 292 291 291 291 291 291 291 290 290 290 290 289 290 290 290 290 290 290 290 291 291 291 292 292 292 292 292 291 293 293 292 292 291 290 290 290 291 291 292 292 292
297 297 296 295 295 295 294 294 294 294 293 293 293 292 292 293 293 293 292 291 291 291 291 290 290 290 290 290 289 289 289 287 288 288 287 287 289 289 289 290 289 290 290 291 290 290 290 291 291 292 292 292 291 291 290 290 290 290 290 291 291 291
297 296 296 296 295 294 294 293 293 293 293 292 292 292 292 292 292 291 291 291 290 290 289 289 289 288 288 288 288 288 288 287 287 287 288 287 288 288 288 288 288 288 289 289 288 289 289 289 290 291 291 291 291 291 291 290 289 289 290 290 291 291
296 295 294 294 293 293 293 292 292 292 291 292 291 291 291 291 291 290 289 289 289 288 288 288 287 287 287 287 287 286 286 286 286 286 286 287 287 286 286 287 286 287 287 287 287 288 287 289 290 290 290 290 291 291 290 289 289 289 289 290 290 291
295 294 293 293 292 292 292 292 292 291 291 291 290 290 290 290 290 289 288 288 288 288 287 287 286 286 286 286 285 285 285 285 285 285 286 286 286 286 286 286 286 286 286 286 286 287 287 287 289 289 290 290 290 290 288 288 288 288 288 289 289 290
295 294 292 292 292 291 290 290 290 290 290 289 289 289 289 289 288 287 287 287 287 287 286 286 285 285 284 284 284 284 284 284 284 285 286 285 285 285 285 285 285 286 286 286 286 286 286 286 287 289 289 289 289 289 287 286 286 286 287 287 288 289
292 292 291 290 289 289 289 289 289 290 288 288 288 288 287 287 286 286 286 286 286 285 286 285 284 283 283 283 282 282 282 283 283 284 285 284 284 284 284 285 285 286 286 285 285 285 285 285 286 287 288 289 289 288 286 286 286 286 286 287 288 289
291 290 289 288 287 288 288 288 288 288 287 287 287 287 286 285 284 284 284 284 285 285 284 284 283 282 281 280 281 281 280 281 282 283 284 284 283 283 284 285 285 284 285 285 285 285 285 285 285 287 288 289 289 288 286 286 285 285 285 286 286 287
288 288 287 286 286 286 286 287 287 286 286 286 286 284 283 282 283 283 283 283 283 283 282 281 281 280 279 279 279 280 280 281 282 282 282 282 282 283 284 284 284 283 283 284 284 285 285 285 285 286 288 288 289 289 287 286 285 284 284 285 285 285
288 287 286 286 285 285 285 286 286 285 285 285 283 282 281 281 282 282 281 281 281 280 280 279 279 278 278 279 278 279 279 280 280 281 281 281 282 282 282 281 282 282 283 284 284 284 285 285 285 286 287 288 289 289 288 286 285 285 285 285 285 285
285 284 283 284 283 283 283 284 284 283 284 282 280 279 279 280 280 280 279 279 278 278 278 278 278 278 277 278 278 278 278 279 280 280 280 281 281 280 280 281 282 282 283 283 284 284 285 286 286 286 286 288 288 289 289 286 285 286 285 284 284 285
283 282 282 281 280 280 280 282 281 281 281 278 277 278 278 278 278 278 278 277 277 277 277 277 277 276 277 277 278 277 277 278 279 279 280 280 280 280 280 280 281 281 282 282 284 284 285 285 286 286 286 287 288 288 289 289 287 288 286 285 284 284
282 281 280 279 278 277 277 278 278 279 277 275 276 277 277 277 277 277 276 276 276 276 276 276 276 276 276 277 277 277 277 277 278 279 280 280 280 280 280 281 281 281 281 281 282 283 284 285 285 286 286 286 287 288 289 288 288 289 286 285 285 285
280 279 278 277 276 276 274 275 275 275 274 274 275 275 275 276 276 275 274 274 274 274 274 274 275 275 276 276 276 276 277 277 277 277 279 279 279 279 279 280 280 280 281 281 281 282 283 284 284 285 285 285 286 287 288 288 288 288 288 286 285 285
280 278 276 275 274 273 273 273 273 272 272 274 274 275 275 274 273 273 273 273 273 273 273 273 274 275 275 275 276 276 276 276 276 277 277 278 278 279 279 279 279 280 279 280 280 281 281 282 283 283 284 285 285 286 287 287 287 286 286 285 285 285
277 277 275 273 273 272 271 271 272 272 273 273 275 275 274 272 272 272 272 272 272 272 273 272 273 273 274 274 275 275 275 276 276 276 276 277 277 278 278 278 278 278 278 279 279 280 280 280 281 282 282 284 284 285 285 285 285 285 285 285 285 285
275 275 274 272 271 270 270 270 271 272 273 273 273 272 271 271 271 271 271 271 271 272 272 272 273 273 273 273 273 273 274 275 275 275 275 276 276 276 276 276 276 277 277 277 278 278 279 279 280 281 281 282 283 284 284 284 284 284 284 284 285 285
273 272 272 270 270 269 269 269 271 272 271 270 270 270 269 270 270 270 270 271 271 271 272 272 271 271 271 272 272 273 274 274 274 274 275 276 277 277 276 276 276 277 278 278 278 277 277 278 278 280 283 283 284 283 283 283 283 284 284 285 286 285
270 270 269 269 268 268 268 269 271 270 269 269 269 269 269 269 269 269 270 270 271 271 271 270 270 270 271 271 271 271 272 275 276 276 275 275 277 279 280 280 277 277 278 277 278 279 278 277 279 282 283 283 284 284 285 285 285 286 286 286 286 285
267 267 267 267 267 267 268 269 269 267 267 267 268 268 268 268 268 269 269 270 269 270 269 269 269 270 270 270 270 270 271 271 273 276 277 277 277 278 278 279 280 280 281 279 278 279 281 282 282 283 283 283 284 284 284 285 285 286 286 286 285 283
267 267 266 267 266 266 268 267 266 266 266 266 266 267 267 267 267 267 268 267 267 267 268 268 268 268 269 269 270 270 270 269 269 270 274 276 276 276 277 278 278 279 279 280 280 279 279 281 282 283 283 283 283 283 284 285 285 285 285 286 286 282
267 266 266 266 266 267 266 264 264 265 264 265 265 266 265 265 265 264 264 264 265 267 267 267 267 267 268 268 268 268 268 268 268 267 268 270 274 275 275 276 277 278 279 279 280 280 281 281 282 282 283 282 283 283 283 284 284 285 285 285 283 281
266 265 265 265 266 264 263 262 263 264 264 264 265 265 263 262 262 262 263 264 264 264 265 266 266 266 267 267 267 267 267 267 267 267 267 267 268 269 272 274 276 276 277 278 279 279 279 280 280 281 281 282 282 283 283 283 283 285 285 284 281 281
264 264 265 265 264 262 262 261 262 263 263 263 262 261 261 260 261 261 263 264 264 264 264 265 265 265 265 266 266 266 266 266 266 267 267 267 267 267 268 268 270 273 275 274 275 277 278 279 280 281 281 281 281 282 282 283 281 280 280 281 282 282
263 264 264 262 262 261 260 260 262 263 262 261 260 259 259 260 261 261 262 263 263 263 264 264 264 265 264 264 264 265 265 265 266 266 266 267 267 267 267 268 269 270 272 274 275 276 277 278 279 279 279 279 280 280 281 278 278 279 279 280 281 281
Wind_Speed
4 5 6 6 6 6 6 6 6 6 7 7 7 8 7 7 6 6 6 6 5 5 6 6 6 6 5 5 5 4 4 5 5 5 5 4 5 5 5 5 5 5 5 5 5 5 5 5 6 6 6 6 7 7 7 7 7 8 9 8 8 8
4 4 4 5 5 5 5 6 5 7 6 7 7 8 7 8 8 7 8 7 7 6 6 7 6 6 6 6 5 5 5 5 5 5 5 5 5 5 6 5 5 6 6 5 5 6 6 6 5 5 5 6 6 6 7 7 7 8 9 9 9 7
5 5 5 5 5 5 5 5 6 6 6 7 7 7 8 8 7 7 7 6 7 7 7 6 6 6 5 5 5 5 5 4 5 5 4 4 4 5 5 5 6 6 6 6 6 6 6 6 6 5 5 5 6 6 7 7 8 9 10 9 10 9
5 5 4 4 4 5 5 5 5 6 6 5 6 6 6 6 6 6 6 6 6 7 6 6 5 4 4 5 5 5 5 5 4 5 4 4 4 4 4 5 5 5 6 6 6 6 6 6 6 6 5 6 6 7 5 6 9 9 10 9 10 10
6 5 5 5 5 5 5 5 5 5 6 6 6 6 6 5 5 5 5 6 6 6 5 4 4 4 4 5 5 6 6 5 5 4 5 4 4 4 4 5 5 5 5 5 5 6 6 6 6 5 6 6 7 7 7 7 8 9 9 10 11 10
6 6 7 6 5 5 5 5 5 5 5 5 5 6 5 4 4 4 5 6 6 6 6 5 5 6 7 7 6 7 6 5 4 4 5 5 4 5 4 4 5 5 5 5 6 6 6 6 6 6 5 7 7 7 8 8 7 7 9 10 10 10
8 7 6 6 5 5 5 4 5 5 5 5 5 5 5 4 4 4 4 5 7 7 7 7 6 6 7 6 5 6 5 5 5 5 5 5 6 6 5 5 5 5 5 5 6 7 6 6 6 7 7 7 6 7 7 8 8 8 9 9 10 10
6 6 6 5 5 5 4 4 5 5 5 5 4 4 4 4 4 4 5 5 6 6 7 6 5 6 6 6 5 5 5 4 5 5 5 5 6 6 5 6 5 5 6 6 6 6 6 6 6 7 7 7 7 7 8 8 8 8 8 9 10 10
8 7 6 5 5 4 4 4 5 5 5 6 5 5 5 4 5 5 4 4 5 5 6 5 5 5 5 5 4 4 4 4 4 4 5 5 5 5 5 5 5 4 5 6 5 6 6 6 6 6 7 7 7 7 8 8 9 9 9 8 9 9
8 8 7 7 5 5 5 4 4 5 5 5 4 4 4 3 4 4 4 3 4 5 5 5 4 4 4 4 4 4 4 4 4 4 4 3 4 3 4 5 6 5 5 5 5 6 6 6 6 6 6 6 7 7 8 8 9 10 10 9 9 9
9 9 8 6 6 6 6 5 5 5 5 4 4 4 5 4 4 3 3 3 4 4 4 4 3 3 4 4 3 4 4 4 3 3 3 3 4 4 4 5 5 6 6 5 5 5 5 5 5 4 4 6 8 8 9 9 9 9 10 11 10 9
9 9 8 7 7 7 6 5 5 4 5 5 5 5 4 3 3 2 2 3 3 4 4 4 4 3 3 4 4 5 5 4 5 5 4 5 4 4 5 5 5 6 6 6 6 5 5 5 5 6 8 7 7 9 8 9 9 9 10 10 11 10
9 8 8 7 7 6 5 5 5 5 6 5 5 4 3 2 1 2 2 3 3 4 4 4 4 3 4 4 4 4 4 5 5 5 6 5 5 5 5 5 6 5 6 6 6 6 6 6 5 9 9 10 11 9 9 9 9 9 9 9 10 12
9 8 8 7 6 6 5 5 5 5 5 4 4 3 1 1 2 2 2 3 3 4 4 4 4 4 3 4 4 5 4 5 5 4 5 6 5 5 6 6 6 6 6 6 6 7 6 6 8 12 11 11 12 11 9 9 9 9 9 9 10 10
9 9 8 7 6 5 5 5 5 5 4 3 3 1 1 1 1 2 2 3 3 4 3 3 4 3 3 4 4 4 4 3 4 3 4 5 6 7 6 7 7 7 7 7 8 8 8 8 9 12 13 13 13 13 12 9 9 10 11 10 11 11
8 8 7 7 6 6 6 5 5 5 3 3 1 1 2 2 1 2 2 3 4 4 4 3 4 4 4 4 5 5 6 4 5 5 6 4 5 6 7 6 9 8 7 8 9 10 9 9 10 13 14 14 14 13 12 10 11 11 12 12 11 11
10 9 8 7 7 6 5 5 4 4 3 2 2 2 2 2 2 3 3 3 3 4 3 4 4 4 5 5 4 3 4 4 4 5 4 4 4 5 7 8 8 9 7 9 8 9 10 9 12 14 15 14 13 14 13 10 10 11 12 12 11 12
11 10 9 7 7 5 4 5 4 3 3 3 3 3 2 2 2 3 3 2 3 3 3 3 4 5 5 5 4 4 4 4 4 6 6 4 5 5 6 6 6 8 9 8 8 10 13 12 13 14 15 15 13 16 11 9 10 11 12 13 12 12
10 10 9 8 6 6 5 5 3 4 5 4 3 3 3 3 3 3 2 2 3 3 3 3 3 4 3 4 4 5 5 6 7 5 4 6 6 6 7 8 8 8 8 10 8 9 12 13 14 13 16 17 16 12 9 9 9 11 12 12 12 11
10 9 8 8 7 5 5 4 4 5 5 4 3 4 3 3 3 2 2 2 2 3 2 3 3 3 3 4 5 5 5 5 5 4 4 6 8 9 8 8 9 9 7 8 10 10 11 14 17 17 15 16 16 12 10 9 9 11 11 11 12 10
11 10 9 8 8 5 4 4 5 6 5 4 4 4 4 3 2 2 3 2 3 2 3 3 2 3 3 4 4 5 7 7 6 5 5 6 7 8 7 7 9 11 11 9 9 13 13 12 16 19 17 16 16 12 7 9 9 10 11 10 12 11
11 10 9 8 7 5 4 5 5 3 5 5 4 4 4 3 3 2 2 3 3 3 3 3 4 5 6 7 7 7 6 6 6 7 7 8 6 7 8 8 8 12 13 12 10 11 12 13 14 16 20 17 17 16 9 7 10 10 11 11 11 12
9 9 8 7 5 4 3 5 6 5 5 5 5 4 3 2 3 3 3 4 4 4 5 6 6 7 6 6 6 6 6 6 7 8 7 9 7 7 9 10 10 11 13 12 11 11 11 11 13 15 19 18 17 17 14 8 10 10 10 11 12 11
10 10 8 6 5 3 1 3 4 5 5 5 5 4 3 3 4 4 5 5 6 6 7 7 7 7 6 6 6 7 7 5 6 6 7 6 7 9 11 10 9 10 12 12 13 11 12 12 15 14 15 17 17 16 16 10 10 11 10 11 12 13
10 9 8 6 4 3 3 3 5 5 5 5 5 4 4 5 5 6 5 6 6 7 7 7 8 8 6 6 6 7 9 7 7 8 7 7 8 9 11 11 10 10 12 12 11 11 11 11 12 16 14 15 16 17 16 17 14 17 11 11 13 13
9 9 7 6 5 4 4 4 5 5 6 6 4 4 4 5 6 5 6 6 7 7 7 7 7 7 6 6 7 7 7 8 8 8 6 6 7 8 9 8 9 9 11 13 14 13 12 11 11 13 16 14 15 17 18 17 18 18 12 11 12 12
10 9 8 6 6 5 5 4 5 6 7 4 4 4 5 5 5 6 6 7 7 6 6 6 7 7 5 5 6 7 7 7 7 8 7 6 6 7 8 9 8 9 10 11 13 14 13 12 12 12 14 16 15 16 18 18 18 17 17 13 11 12
8 8 8 7 6 5 5 5 5 6 5 4 4 4 4 5 6 6 6 6 5 5 6 6 6 4 4 6 5 5 6 7 8 7 7 6 6 6 8 8 9 9 10 11 12 13 13 14 14 14 13 12 12 11 14 16 15 15 15 16 16 20
7 8 8 7 5 5 5 5 6 5 4 4 4 4 5 5 5 5 5 5 5 5 4 5 4 5 5 4 4 5 5 5 6 7 8 6 7 8 8 8 9 10 9 10 12 13 14 14 14 14 13 10 10 9 10 11 13 17 18 14 12 12
7 7 7 6 5 4 4 5 5 4 4 4 5 5 5 5 5 4 4 5 5 4 4 5 7 7 6 5 5 6 6 5 6 6 8 7 6 8 9 8 10 10 10 11 13 14 14 15 14 13 13 12 12 12 12 13 14 14 12 13 12 11
7 7 7 6 5 4 4 4 4 5 6 5 5 5 5 5 5 4 4 4 4 4 4 4 4 5 7 7 7 6 6 7 7 9 10 10 7 8 9 10 12 12 11 11 13 14 15 15 17 16 14 18 24 21 18 16 15 15 14 15 19 18
8 8 7 5 5 5 4 5 5 5 5 4 5 5 6 5 4 4 3 3 3 3 4 4 5 5 5 6 7 9 10 10 13 12 11 13 13 16 19 18 15 14 12 14 15 13 15 16 17 26 34 34 33 33 33 29 29 28 23 25 30 23
7 7 7 5 5 5 4 5 5 5 5 5 5 5 5 4 4 3 3 3 3 4 5 5 5 5 6 6 7 7 9 12 10 12 18 20 23 24 24 23 26 28 26 20 18 19 27 31 32 32 31 32 32 33 34 34 30 30 29 29 20 15
6 6 6 5 5 5 5 5 5 5 4 4 4 4 3 3 3 3 3 3 4 5 5 4 5 6 6 6 6 7 8 9 13 15 11 12 15 19 23 25 25 25 24 26 25 21 18 24 28 30 30 33 35 34 32 32 33 31 30 28 27 16
5 5 5 5 5 5 4 4 3 4 3 3 3 2 2 2 2 3 4 4 4 4 5 5 5 5 6 6 7 7 7 8 10 12 16 16 13 16 19 23 24 25 24 24 23 25 24 25 29 33 32 32 32 31 30 32 34 33 30 28 18 13
5 5 5 5 6 5 4 4 2 3 2 2 2 2 2 2 3 4 4 3 4 4 4 4 4 5 5 5 6 7 8 9 9 11 12 15 18 19 16 12 12 15 20 23 25 26 26 26 28 29 31 31 30 30 30 29 24 29 31 24 16 14
6 5 6 6 5 4 3 3 1 2 1 1 2 2 1 3 3 3 5 7 5 3 4 4 5 5 6 6 7 7 8 9 10 11 11 12 14 15 17 18 16 15 18 18 21 24 29 29 27 27 27 29 30 30 31 30 20 16 13 12 9 10
5 6 6 5 4 3 3 1 1 2 1 2 1 1 2 2 2 3 2 2 3 3 4 4 4 5 6 7 7 8 9 10 10 11 11 12 13 14 15 17 15 15 20 26 24 25 27 28 27 26 28 29 31 30 30 17 13 13 12 11 10 10
Wind_Direction
79 71 75 69 66 64 64 64 67 69 64 64 71 74 70 71 69 72 64 61 60 59 58 57 55 50 48 42 33 34 29 23 14 4 352 345 346 338 337 330 331 330 330 322 316 314 314 312 309 309 302 299 294 293 291 291 292 288 284 285 285 285
90 85 87 78 68 65 62 64 65 65 66 70 75 76 73 69 64 65 65 55 57 57 59 52 53 51 49 42 36 40 32 28 15 6 1 354 338 342 335 334 334 334 332 331 322 317 316 313 311 311 306 301 295 295 292 292 295 291 286 286 284 285
106 95 86 79 72 62 59 58 57 59 62 66 64 73 71 69 65 66 63 62 59 56 54 49 45 48 49 51 44 45 37 31 21 15 352 336 349 346 341 339 344 338 335 330 325 323 319 317 314 312 307 299 294 293 292 295 293 287 285 285 285 282
115 107 97 91 83 78 76 72 71 66 65 63 66 64 67 75 69 71 73 70 67 63 60 55 49 45 47 58 52 44 39 29 23 5 349 351 350 346 339 345 342 340 334 328 323 318 317 313 313 314 311 304 302 295 295 291 290 289 286 287 285 284
136 128 122 111 103 96 89 80 75 75 73 68 64 66 62 64 76 80 88 86 82 76 70 62 50 40 50 55 48 36 28 18 11 5 350 352 340 344 350 342 341 335 330 322 320 318 313 312 309 307 300 294 289 289 287 286 288 287 288 286 285 286
138 138 135 127 118 108 99 93 90 85 76 75 75 70 63 58 58 76 91 93 87 81 72 60 47 42 38 43 39 30 23 11 6 357 353 353 348 349 346 340 337 333 326 325 320 321 318 314 311 302 295 291 288 287 286 285 283 281 286 288 287 289
159 150 138 130 121 117 111 106 101 92 83 78 80 74 66 56 41 52 64 80 80 67 61 51 43 40 38 38 32 25 16 10 4 1 353 354 349 348 345 342 342 334 332 328 327 323 320 315 312 310 304 300 295 291 289 289 288 285 281 282 285 286
144 135 133 126 123 120 116 108 99 90 83 73 61 73 70 57 49 38 43 50 66 68 62 56 45 39 36 31 29 18 14 6 5 357 356 355 345 341 343 343 337 338 326 322 320 314 310 312 308 303 300 297 299 296 292 288 285 285 286 286 285 283
148 140 131 127 122 116 109 104 96 95 92 79 65 57 56 50 52 49 47 50 65 70 64 56 46 37 31 25 14 6 4 4 356 352 350 342 330 332 330 328 322 318 314 307 309 305 305 305 304 301 300 302 302 302 297 294 290 284 283 277 277 279
147 144 141 137 130 122 108 92 88 85 83 82 73 65 64 48 54 52 47 53 62 64 61 55 39 33 23 11 6 4 2 352 351 345 329 322 317 320 316 316 317 307 301 300 296 299 299 296 296 294 300 309 309 305 296 290 289 287 284 280 276 274
157 151 144 137 133 125 116 110 101 98 95 90 84 77 58 46 55 58 61 61 61 58 55 54 40 27 17 15 5 5 359 353 346 334 322 320 313 308 305 300 301 300 294 287 285 286 285 284 283 288 303 310 305 300 297 293 287 285 285 284 282 276
154 149 142 140 137 131 128 121 115 104 103 90 73 67 50 42 59 68 83 75 60 52 52 50 40 24 14 18 8 360 353 342 341 330 320 313 306 303 300 297 288 283 282 289 288 283 281 276 276 271 275 282 291 298 293 290 285 284 283 284 285 281
146 140 142 140 132 131 122 118 114 105 90 80 74 70 57 47 97 106 70 64 53 47 42 43 27 10 15 7 357 351 338 335 328 316 313 311 304 297 297 288 286 288 292 291 288 285 279 274 274 277 279 286 289 291 293 291 290 283 278 277 279 283
149 150 146 138 132 128 126 115 102 91 85 83 77 74 47 75 79 88 78 56 47 41 33 29 12 6 0 359 347 331 324 307 302 297 303 301 298 304 294 290 295 297 293 287 284 284 287 285 277 279 284 289 292 289 288 290 287 282 280 277 276 279
155 149 139 135 136 126 105 99 99 96 94 90 94 105 178 138 142 118 88 67 54 43 33 22 8 359 350 342 332 315 315 313 313 315 322 318 312 304 305 307 305 300 299 298 300 298 291 287 287 289 290 292 291 287 288 285 281 281 278 277 276 278
140 137 134 128 119 102 98 93 91 98 94 101 137 182 186 172 149 92 64 57 46 32 25 12 357 354 347 338 327 323 323 324 322 326 315 309 314 314 312 308 304 301 305 306 300 295 295 289 294 293 294 294 293 288 289 284 283 278 275 274 273 274
135 132 127 126 120 113 114 110 109 114 125 149 170 195 189 158 109 65 48 42 39 21 9 5 354 350 340 335 334 325 313 314 313 321 313 309 310 309 311 309 312 305 301 301 299 295 294 288 290 295 295 294 289 291 292 286 283 280 277 275 271 270
145 141 133 119 117 119 121 118 120 135 141 167 187 174 152 124 101 77 42 39 28 12 356 353 338 335 329 323 317 308 310 310 312 319 314 307 303 298 291 294 290 297 300 298 300 299 297 298 297 294 294 294 289 294 292 284 282 281 280 278 275 272
130 123 118 121 123 123 114 111 132 161 170 177 177 168 135 115 94 58 39 31 20 354 344 340 330 321 316 318 319 329 327 326 322 308 308 308 298 291 298 301 300 297 298 302 302 299 297 298 297 293 290 290 283 283 281 281 279 278 278 277 277 274
110 113 122 120 115 107 106 130 173 181 175 166 162 149 122 99 75 44 24 19 5 356 352 350 345 332 333 341 335 321 314 310 298 301 316 310 314 312 306 299 301 305 299 300 306 303 300 297 298 296 290 288 288 271 277 279 280 280 281 281 277 277
122 121 119 119 115 117 130 165 189 178 161 151 137 123 110 83 59 27 14 3 1 4 9 360 358 354 348 333 328 330 323 321 314 309 313 313 307 301 300 307 309 310 307 304 301 301 299 297 300 302 304 299 294 288 271 276 275 281 283 288 288 287
118 122 123 124 121 125 162 187 171 157 141 126 112 106 89 60 30 4 1 360 5 15 10 8 8 5 355 340 333 331 320 312 312 323 324 317 308 306 312 315 311 308 304 305 307 304 300 298 297 298 300 299 294 290 280 269 279 277 284 288 289 291
123 123 122 117 119 136 173 183 160 135 115 112 104 87 59 27 17 11 12 6 10 14 13 9 5 351 343 337 324 314 314 315 319 318 319 314 308 310 308 307 306 302 300 300 301 298 293 288 288 291 293 295 292 288 285 271 266 274 280 287 288 288
114 112 108 108 112 117 114 142 128 115 115 104 86 63 23 20 19 16 12 14 14 11 4 359 352 347 332 325 319 318 309 308 307 307 311 305 304 306 304 303 304 299 297 299 297 295 291 289 286 289 291 291 289 285 278 269 263 265 277 281 282 285
128 127 124 119 110 80 61 97 111 111 107 91 65 36 26 23 20 14 14 12 9 6 356 352 347 333 326 319 317 318 313 312 315 314 308 297 300 303 301 301 300 300 298 299 298 297 297 298 297 291 292 291 289 288 283 275 272 275 265 271 278 280
124 123 118 109 94 76 55 79 104 105 96 73 45 32 29 26 19 15 14 12 5 357 351 340 330 324 319 319 321 317 312 314 316 311 304 304 301 294 300 296 302 300 298 302 303 302 300 299 296 292 291 293 291 287 288 285 283 278 266 266 272 278
130 124 114 102 92 78 64 58 97 99 84 63 47 35 31 23 18 15 13 6 357 345 334 326 322 316 311 324 321 314 313 313 318 311 305 305 297 294 292 294 299 300 299 301 298 300 302 302 299 297 296 295 295 289 289 286 284 283 279 277 273 274
119 122 117 101 84 74 66 57 70 81 73 63 50 38 36 23 14 13 6 354 339 328 320 318 311 308 320 312 308 305 302 304 306 300 299 295 289 287 290 294 300 297 298 293 294 295 299 301 300 298 297 302 298 294 288 286 288 288 289 286 284 279
126 126 120 109 90 77 70 70 70 72 70 58 53 46 33 20 19 14 358 343 325 318 311 312 315 321 317 312 308 300 290 286 289 292 291 291 294 296 293 293 292 292 291 291 294 296 298 298 297 297 298 303 302 303 302 304 304 300 296 290 284 283
121 122 118 107 96 83 84 84 81 76 71 66 53 35 28 28 25 5 339 327 318 315 313 312 319 319 315 308 299 294 295 287 284 282 282 289 296 298 295 291 287 285 290 296 296 296 297 295 293 291 297 300 301 304 303 300 295 293 292 290 288 285
113 114 112 110 105 109 107 105 101 81 64 48 39 29 37 25 9 347 325 322 319 312 318 321 317 314 309 306 301 290 284 295 293 286 282 270 262 257 268 281 281 281 285 285 287 291 292 292 291 290 296 296 297 297 298 297 295 294 290 287 290 293
116 124 123 118 119 122 120 113 99 75 58 53 40 33 33 14 352 333 333 321 315 313 323 319 312 304 303 304 306 304 295 268 264 269 276 288 277 262 266 273 274 280 289 288 280 275 280 282 283 292 296 297 299 298 296 294 292 291 291 294 296 296
118 119 121 123 124 124 116 100 77 65 50 47 33 35 27 3 348 338 323 319 317 321 315 308 306 309 305 298 297 299 303 309 298 272 269 272 281 285 281 277 278 281 280 278 283 282 279 281 283 286 290 293 296 297 298 298 297 295 294 295 297 291
130 129 127 122 121 120 112 93 69 66 49 42 37 27 22 358 350 323 309 307 305 303 302 300 298 297 298 302 305 305 308 308 308 306 284 260 265 283 289 289 287 283 279 278 278 281 287 287 288 290 292 294 294 295 296 297 298 297 296 295 295 288
131 125 127 125 126 116 100 90 78 75 59 46 39 21 19 1 326 296 288 287 288 298 303 301 301 303 302 304 307 309 304 303 305 304 312 311 294 281 277 282 285 290 292 291 288 284 283 287 292 294 296 296 296 297 297 295 295 294 294 295 289 277
125 129 129 130 125 115 104 104 91 85 67 53 42 23 15 317 285 274 271 283 304 303 300 302 302 303 302 299 301 299 300 297 296 298 300 305 313 318 312 287 277 290 297 299 300 299 297 294 292 294 295 297 299 298 298 297 295 293 293 290 283 279
128 130 143 139 130 115 115 118 118 112 87 57 43 18 294 262 263 271 275 281 287 296 297 301 300 299 299 303 301 301 301 297 297 298 295 296 301 305 305 311 312 310 310 309 306 302 301 300 300 301 303 304 303 303 301 300 296 293 292 287 270 268
137 144 140 127 126 121 129 165 175 126 100 60 43 266 253 259 268 273 281 290 296 292 288 293 295 299 300 300 299 299 295 296 296 295 295 295 295 293 298 301 303 307 310 309 306 305 306 307 308 309 309 307 305 302 301 295 288 289 288 286 282 277